Dewpoint
65 63 56 45 43 43 41 40 38 37 26 27 27 25 23 26 26 25 47 57 55 56 64 71 73 72 71 71 70 70 70 69 67 67 66 65 64 63 64 64 64 64 63 62 62 61 61 61 62
62 56 47 49 43 41 40 43 38 34 25 26 26 27 28 33 45 46 54 59 59 62 67 70 73 72 72 72 71 71 70 69 68 67 65 65 65 66 65 65 65 65 65 65 64 63 62 62 61
54 43 41 47 44 42 40 41 38 36 31 25 25 32 33 38 46 47 52 60 60 63 67 69 73 73 72 72 72 72 71 70 69 67 67 67 67 67 67 66 65 66 66 66 66 65 64 63 63
46 51 49 44 43 43 41 41 40 36 22 24 28 33 35 41 46 46 61 59 60 62 65 69 73 73 73 73 72 72 71 70 69 68 68 68 67 67 67 67 66 66 65 65 65 66 65 65 65
53 49 46 43 42 42 40 38 27 23 23 24 28 33 35 40 47 57 62 58 58 61 65 69 73 73 73 73 72 71 71 71 71 69 69 68 67 67 67 66 65 65 64 64 65 65 67 66 65
47 44 38 36 35 34 35 34 30 27 26 29 32 34 35 42 50 60 62 60 60 63 66 70 73 73 73 73 72 72 72 72 70 68 68 67 67 67 66 66 65 64 64 64 64 66 67 67 67
44 42 39 36 36 35 34 32 30 29 26 27 33 32 36 42 47 53 56 59 63 64 67 71 71 72 73 73 72 72 71 69 68 67 65 62 62 62 62 63 63 63 63 64 64 66 67 66 66
45 41 40 36 34 33 34 30 27 28 26 30 40 35 36 40 45 43 53 60 63 66 68 69 69 70 70 70 72 71 69 68 66 63 62 62 62 62 62 62 63 63 63 63 63 63 66 66 65
43 39 37 37 34 34 34 32 32 29 27 26 28 37 39 42 43 43 47 52 56 61 63 65 66 65 65 67 68 69 68 65 63 63 63 63 61 60 60 61 61 63 63 63 63 63 65 65 64
41 39 37 35 36 35 36 36 35 29 29 25 28 36 44 42 41 41 44 46 47 54 57 62 62 63 63 65 64 63 62 61 62 62 60 59 59 59 59 61 62 63 63 63 64 64 64 63 62
41 36 37 36 38 40 37 35 36 28 29 30 26 31 42 41 41 41 41 42 45 49 51 56 58 60 61 62 62 62 60 59 60 60 59 58 59 59 59 59 59 60 62 61 62 62 62 62 60
38 40 39 37 38 39 37 37 34 32 31 32 30 36 41 40 40 41 41 40 39 44 49 53 55 57 58 59 60 60 58 59 58 58 59 58 58 58 57 58 59 59 59 59 59 60 61 61 60
38 38 38 39 39 38 37 35 34 33 34 31 30 39 41 40 40 41 40 40 40 44 49 52 55 56 57 58 59 58 59 59 58 58 58 59 58 57 58 59 60 61 60 60 59 59 60 60 60
40 39 40 40 40 39 36 36 36 36 36 33 31 38 41 40 40 40 39 39 43 46 48 53 55 57 59 58 58 59 59 59 59 59 59 59 59 58 58 60 59 58 57 58 58 59 59 59 59
28 28 30 32 35 35 36 33 32 32 32 31 30 32 39 41 41 40 39 40 43 47 51 54 56 58 59 58 58 58 59 59 59 59 60 60 59 58 59 58 57 57 57 57 58 58 58 58 58
23 26 24 28 32 34 30 30 30 31 31 32 32 31 35 38 40 40 41 42 46 50 52 54 56 58 58 57 57 58 59 59 59 59 59 60 60 59 58 57 57 57 57 56 56 56 57 57 57
24 21 22 23 28 29 29 27 30 33 31 31 31 33 31 34 38 39 43 45 45 51 52 54 56 57 57 56 57 58 59 59 59 59 59 60 61 61 58 57 57 57 56 56 56 55 56 56 56
16 19 21 23 25 27 27 29 30 31 32 31 31 31 33 32 34 38 45 45 48 51 53 54 55 55 56 57 57 58 58 58 59 60 60 60 60 60 57 56 57 57 56 55 55 55 56 56 56
17 19 18 20 25 27 28 29 30 30 31 30 32 32 33 36 39 44 47 46 50 52 53 55 55 56 57 56 55 56 56 57 58 59 61 60 61 59 58 57 57 56 55 55 55 55 55 55 56
22 22 23 25 26 27 26 26 27 29 29 30 31 33 33 40 45 47 45 46 50 53 54 54 55 56 56 55 57 57 57 58 58 59 61 61 61 59 58 58 57 56 55 54 55 55 55 55 56
22 20 21 22 26 28 27 27 28 28 31 34 34 34 37 40 45 47 45 47 51 53 54 54 54 55 56 56 57 57 57 57 58 58 58 58 59 59 59 58 57 56 56 54 54 55 56 54 56
21 24 23 24 26 25 29 25 26 28 28 28 30 31 34 40 45 47 46 47 50 52 54 55 55 55 55 58 56 55 55 54 56 56 57 57 58 59 59 58 57 56 56 55 55 57 56 56 55
21 25 26 28 26 26 25 25 25 27 26 27 27 29 33 41 45 47 47 48 50 51 53 55 55 54 56 57 56 57 54 56 56 56 56 56 58 59 59 58 57 56 56 55 56 56 56 56 56
20 26 26 25 27 24 24 25 24 25 25 26 28 29 40 41 46 48 48 48 49 51 53 55 53 55 56 56 56 56 55 55 55 55 55 55 56 59 57 58 56 56 56 57 57 56 56 56 57
19 24 22 22 24 24 25 25 25 27 29 27 28 31 41 45 49 48 47 48 49 50 53 52 52 54 56 57 57 56 56 56 55 55 55 54 54 57 55 56 56 56 57 57 57 57 57 56 57
16 21 24 20 21 22 25 24 24 28 29 31 30 34 43 46 49 48 48 48 49 50 52 53 52 53 54 56 56 55 56 55 54 55 56 54 54 55 55 57 57 57 59 59 58 58 58 57 58
15 21 25 21 26 22 24 26 28 28 28 35 38 40 43 46 48 49 49 48 49 50 51 52 51 50 51 55 55 56 56 55 55 55 55 55 55 56 56 57 57 58 58 59 59 59 59 59 59
15 19 15 18 16 18 23 23 24 24 30 37 40 40 44 47 49 49 49 48 49 50 51 51 52 50 50 54 55 56 58 56 56 56 56 55 55 56 56 57 57 58 58 59 59 59 61 61 61
13 13 18 22 24 22 20 23 27 23 29 36 38 41 44 47 48 49 48 47 47 49 49 50 52 50 52 54 53 57 58 58 56 56 56 56 55 56 56 57 58 58 58 59 58 59 60 61 61
14 12 13 15 18 22 23 22 28 26 27 37 39 42 44 47 48 48 47 47 46 47 46 48 51 50 51 52 53 56 58 58 57 56 56 56 56 56 57 58 59 59 58 58 59 58 59 60 61
Lifted_Index
3 4 5 4 2 1 0 0 1 2 2 3 3 4 3 3 2 1 -0 -0 -0 -0 -1 -3 -4 -3 -3 -3 -2 -2 -1 0 1 2 3 3 3 3 3 3 3 3 3 4 5 5 5 5 5
4 4 4 2 1 0 0 -0 0 1 2 3 3 4 4 3 2 1 -0 -0 -0 -1 -2 -3 -4 -4 -4 -3 -3 -2 -2 -1 0 1 2 2 2 2 2 2 2 2 2 3 4 4 4 4 4
4 3 2 1 0 0 -0 -0 0 1 2 3 3 4 4 4 3 1 0 -1 -1 -1 -2 -4 -5 -5 -5 -4 -4 -4 -3 -2 -1 -0 0 1 1 1 1 2 2 2 2 2 2 3 3 3 4
3 2 1 1 0 -0 -0 -0 1 1 2 3 3 3 3 3 3 1 -0 -1 -1 -1 -2 -4 -5 -6 -6 -5 -5 -4 -4 -3 -2 -2 -1 -1 -0 0 1 1 2 2 2 2 2 1 2 2 2
2 1 1 1 1 0 0 0 1 2 2 2 3 3 3 3 2 1 -1 -1 -1 -1 -2 -5 -6 -7 -6 -6 -5 -5 -4 -4 -3 -2 -2 -1 -0 0 1 1 2 2 2 2 2 1 1 1 1
1 1 1 1 1 1 1 1 1 1 1 2 2 2 2 2 2 0 -1 -2 -1 -2 -3 -5 -7 -7 -7 -6 -5 -5 -5 -4 -3 -2 -1 -0 1 1 1 2 2 2 2 2 2 1 0 0 0
1 1 2 2 2 1 1 1 0 0 1 2 2 2 2 2 2 0 -1 -2 -2 -3 -5 -6 -7 -7 -7 -6 -6 -5 -4 -3 -2 -1 1 2 2 3 3 3 3 3 3 2 2 1 1 0 0
1 1 2 2 2 1 1 1 0 0 1 1 2 2 2 2 2 1 -0 -1 -2 -3 -5 -6 -6 -6 -6 -6 -6 -5 -4 -2 -1 1 2 3 3 4 4 4 3 3 3 3 2 2 1 1 1
2 2 2 2 2 1 1 1 1 1 1 1 1 1 2 2 2 2 1 -0 -1 -2 -4 -4 -5 -4 -4 -4 -4 -3 -2 -1 1 1 2 3 3 4 4 4 3 3 2 2 2 2 1 1 1
2 2 2 2 2 1 1 1 1 1 1 1 1 1 1 2 2 2 1 1 0 -1 -2 -3 -3 -2 -2 -2 -2 -1 -0 1 1 2 2 3 3 4 4 4 3 3 2 2 2 1 1 1 1
2 2 2 2 2 1 1 1 1 1 1 1 0 1 2 2 2 2 2 1 1 0 -0 -1 -1 -1 -1 -0 0 0 1 1 1 2 2 3 4 4 4 4 4 3 3 2 2 1 0 -0 -0
2 2 2 2 2 2 1 1 1 1 1 1 1 1 2 2 2 2 2 1 1 1 1 0 0 0 1 1 1 1 1 2 2 2 2 3 3 3 3 4 4 3 3 3 3 2 0 -0 -1
2 2 2 2 2 2 1 1 1 1 1 1 2 2 2 2 2 2 2 2 1 1 1 1 1 2 2 1 1 1 1 1 2 2 2 2 2 3 3 3 3 3 3 3 3 2 1 -0 -0
2 2 2 3 2 2 1 1 1 1 1 2 2 2 1 2 2 2 2 2 1 1 2 2 2 2 1 1 1 1 1 1 1 1 1 2 2 2 2 3 3 3 3 3 2 1 1 0 -0
2 2 3 4 3 2 1 2 2 2 2 2 2 1 1 2 2 2 2 2 2 2 2 2 2 1 1 1 1 1 1 1 1 1 1 1 1 2 2 2 3 3 2 2 2 1 1 0 0
3 3 4 4 3 3 2 3 3 2 3 2 2 1 1 1 2 2 2 2 2 2 2 2 1 1 1 1 1 1 0 0 0 0 0 0 1 1 1 2 2 2 2 2 1 1 1 0 0
3 3 3 3 3 3 4 4 4 3 3 2 1 1 1 1 1 1 1 2 2 2 2 2 1 1 1 1 0 0 -0 -0 -0 -0 -0 -0 0 1 1 2 2 2 1 1 1 1 1 0 0
3 3 3 3 3 3 4 5 4 3 3 2 2 1 1 1 1 1 1 2 2 2 2 1 1 1 0 0 0 -0 -0 -0 -0 -0 -1 -0 -0 1 2 2 2 1 1 1 1 1 1 0 -0
3 3 3 3 3 3 4 4 4 3 3 3 2 2 1 1 1 0 0 1 1 2 1 1 0 0 0 0 0 -0 -0 -0 -0 -0 -0 -0 0 1 2 2 1 1 1 1 1 1 1 0 -0
3 3 2 3 3 3 3 4 3 3 3 3 2 2 1 1 1 0 -0 0 1 1 1 1 1 0 0 0 0 -0 -0 -0 -0 -0 -0 -0 0 1 1 1 1 0 1 1 1 1 0 -0 -0
3 3 2 2 2 3 3 3 3 3 3 2 2 2 1 1 1 -0 -0 0 1 1 1 1 1 1 1 1 0 -0 -0 -0 -0 -0 0 0 1 1 1 1 0 0 1 1 1 1 0 -0 -0
3 3 3 3 2 2 3 3 3 3 2 2 2 2 2 1 1 0 0 0 1 1 1 1 1 1 1 1 0 0 -0 -0 0 0 1 1 1 1 1 1 0 0 0 1 1 1 -0 -0 -1
3 3 4 4 3 2 2 2 2 2 2 2 2 2 2 2 1 1 1 1 2 2 2 1 1 1 1 1 0 0 0 0 0 1 1 1 1 1 0 0 0 0 0 0 1 0 0 -0 -0
4 4 4 4 3 2 2 2 2 2 2 2 2 2 2 2 2 2 2 2 2 2 2 1 1 1 1 1 0 0 1 1 1 1 1 1 1 0 0 0 0 0 0 0 0 0 0 0 0
5 4 3 2 2 2 2 2 1 2 2 2 2 2 2 2 2 2 3 2 2 2 2 2 2 2 1 0 0 1 1 1 2 1 1 1 1 0 0 0 0 0 -0 -0 -0 -0 0 0 0
5 4 3 1 1 2 2 2 2 2 3 2 2 2 2 2 2 2 3 3 2 2 2 2 2 2 1 1 1 1 1 1 2 2 2 1 1 1 0 0 0 0 -0 -0 -0 -0 -0 0 0
5 4 4 3 2 2 2 2 2 3 3 2 2 2 2 2 2 2 3 2 2 2 2 2 2 2 2 1 1 1 1 1 1 2 2 2 1 1 1 1 0 -0 -0 -0 -1 -1 -1 -0 -0
5 5 4 3 2 1 1 2 2 3 2 2 2 1 1 1 1 2 2 2 2 2 3 3 2 2 2 1 1 1 1 1 1 2 2 2 2 2 1 1 0 -0 -1 -1 -1 -1 -1 -1 -1
5 5 4 3 2 1 1 2 2 3 2 2 2 1 1 1 2 2 2 2 2 3 3 3 3 2 2 1 1 1 1 1 2 2 2 2 2 2 1 1 -0 -1 -1 -1 -1 -1 -1 -1 -1
5 5 4 3 3 2 1 1 2 3 3 2 2 1 1 1 2 2 2 2 2 3 4 3 3 2 2 1 1 1 0 1 2 2 2 2 2 2 1 0 -0 -1 -1 -1 -1 -1 -1 -0 -0